Zurück zum Katalog

KUIPER-00564

AktivKommunikationLEO
NORAD 69625·PAYLOAD·🇺🇸 United States

Gestartet Jun 17, 2026 von Guiana Space Centre

Loading…

Nächste Überflüge (nächste 24 Stunden)

TLE

AktuellSource: CelesTrak SupGP

Epoche: Sep 14, 2026, 19:13 UTC

1 69625C 26140AK  26257.80079861  .00001693  00000+0  23987-3 0  2579
2 69625  51.8979 334.2736 0001957 106.2580 135.5611 14.76573921    19

Verfolge KUIPER-00564 in Echtzeit mit AllMySat

Download on the App Store